Location: ????????
(55.5667°N, 37.5833°E)
Time: 07:49:32
(UTC+00:00)

Resurs 1-4 Rocket - Pass Details

Date: 14 April 2026
Orbit: 798 x 812 km, 98.8° (Epoch: 13 May)

Event Time Altitude Azimuth Distance (km) Brightness Sun altitude
Rises 22:55:57 0° 24° (NNE) 3,349 6.8 -22.3°
Reaches altitude 10° 22:59:02 10° 43° (NE) 2,410 5.6 -22.1°
Maximum altitude 23:02:44 19° 87° (E) 1,861 4.3 -21.9°
Drops below altitude 10° 23:06:24 10° 131° (SE) 2,394 4.4 -21.7°
Enters shadow 23:07:00 - 136° (SE) 2,556 4.5 -21.7°
